Regional Weather Roundup
Issued by NWS

Home | Current Version | Previous Version | Text Only | Print | Product List | Glossary Off
Versions: 1 2 3 4 5 6 7 8 9 10 11 12 13 14 15 16 17 18 19 20 21 22 23 24 25 26 27 28 29 30 31 32 33 34 35 36 37 38 39 40 41 42 43 44 45 46 47 48 49 50

000
ASUS45 KBOI 180410
RWRID
WEATHER ROUNDUP FOR IDAHO
NATIONAL WEATHER SERVICE BOISE ID
900 PM MST WED DEC 17 2014

NOTE: "FAIR" INDICATES FEW OR NO CLOUDS BELOW 12000 FEET
WITH NO SIGNIFICANT WEATHER AND/OR OBSTRUCTIONS TO VISIBILITY

IDZ012-014-180500-
SOUTHWEST IDAHO


CITY           SKY/WX    TMP DP  RH WIND       PRES   REMARKS
BOISE          CLOUDY    41  33  73 SE7       30.01R
CALDWELL       MOCLDY    36  28  75 S5        30.03R WCI  32
MOUNTAIN HOME  CLOUDY    39  32  75 E12       30.01S WCI  32
$$

IDZ016-017-180500-
SOUTHCENTRAL IDAHO


CITY           SKY/WX    TMP DP  RH WIND       PRES   REMARKS
BURLEY         MOCLDY    33  28  81 N3        30.02R
JEROME         MOCLDY    32  27  81 E9        30.03R WCI  24
TWIN FALLS     PTCLDY    32  25  75 E5        30.03R WCI  27
$$

IDZ019>023-180500-
SOUTHEAST IDAHO


CITY           SKY/WX    TMP DP  RH WIND       PRES   REMARKS
IDAHO FALLS    PTCLDY    22  20  92 CALM      30.05R
POCATELLO      PTCLDY    27  25  92 CALM      30.05R
REXBURG        CLOUDY    29  27  92 CALM      30.03R
$$

IDZ006-010-011-018-031-032-180500-
CENTRAL IDAHO MOUNTAINS


CITY           SKY/WX    TMP DP  RH WIND       PRES   REMARKS
MCCALL         CLOUDY    31  29  92 CALM      29.95R
HAILEY         CLOUDY    28  25  86 NW6       30.04R WCI  22
STANLEY          N/A     23  19  85 CALM      29.99S
SALMON         PTCLDY    19  16  86 CALM      30.04R
CHALLIS        PTCLDY    17  16  95 CALM      30.04R
$$

IDZ002-004-006-007-026-180500-
NORTHERN IDAHO


CITY           SKY/WX    TMP DP  RH WIND       PRES   REMARKS
LEWISTON       CLOUDY    39  36  89 E5        29.95R
LOWELL           N/A     36  33  89 NW5       30.02R WCI  32
COEUR D`ALENE  CLOUDY    34  30  86 NE9       29.94S WCI  26
MULLAN PASS    CLOUDY    27  27 100 VRB3      29.88R
$$


USA.gov is the U.S. government's official web portal to all federal, state and local government web resources and services.